#timestamp,LO_Frequency,Hit,StdDev 
1514224815.8,286046999.9,N
1514224835.6,286046998.1,N
1514224855.5,286046999.1,N
1514224875.3,286046996.8,N
1514224895.1,286046995.0,N
1514224915.9,286046997.2,N
1514224935.7,286046996.8,N
1514224955.5,286046996.5,N
1514224975.4,286046998.3,N
1514224995.2,286046998.5,N
1514225015.1,286046999.6,N
1514225016.0,286046999.6,N
1514225035.8,286046996.6,N
1514225055.6,286046999.1,N
1514225075.5,286046998.4,N
1514225095.3,286046997.1,N
1514225115.2,286046997.6,N
1514225135.9,286046998.7,N
1514225155.7,286047001.1,N
1514225175.6,286047002.7,N
1514225195.4,286047001.8,N
1514225215.2,286047002.8,N
1514225235.1,286046999.7,N
1514225236.0,286046999.7,N
1514225255.8,286047002.4,N
1514225275.7,286047001.8,N
1514225295.5,286047003.9,N
1514225315.3,286047003.0,N
1514225335.2,286047003.6,N
1514225355.0,286047001.3,N
1514225355.9,286047001.3,N
1514225375.8,286047003.2,N
1514225395.6,286047004.1,N
1514225415.4,286047004.2,N
1514225435.3,286047001.7,N
1514225455.1,286047001.9,N
1514225475.8,286047002.3,N
1514225495.7,286047000.4,N
1514225515.5,286047000.5,N
1514225535.4,286047001.0,N
1514225555.2,286046998.2,N
1514225575.0,286046999.1,N
1514225575.9,286046999.1,N
1514225595.8,286046999.3,N
1514225615.6,286046998.5,N
1514225635.5,286047000.3,N
1514225655.3,286046998.1,N
1514225675.1,286046999.8,N
1514225695.9,286047000.1,N
1514225715.7,286047000.0,N
1514225735.5,286047002.7,N
1514225755.4,286046999.8,N
1514225775.2,286046998.2,N
1514225795.1,286047000.2,N
1514225796.0,286047000.2,N
1514225815.8,286047002.7,N
1514225835.6,286047000.3,N
1514225855.5,286047001.4,N
1514225875.3,286047003.1,N
1514225895.2,286047001.7,N
1514225915.9,286046999.8,N
1514225935.7,286047000.0,N
1514225955.6,286046999.9,N
1514225975.4,286046999.7,N
1514225995.2,286047000.6,N
1514226015.1,286046998.8,N
1514226016.0,286046998.8,N
1514226035.8,286046999.9,N
1514226055.7,286047000.9,N
1514226075.5,286046998.2,N
1514226095.3,286046998.5,N
1514226115.2,286047000.2,N
1514226135.0,286047000.4,N
1514226135.9,286047000.4,N
1514226155.8,286046998.7,N
1514226175.6,286047001.1,N
1514226195.4,286047002.3,N
1514226215.3,286046999.1,N
1514226235.1,286047000.5,N
1514226255.8,286046999.6,N
1514226275.7,286046996.5,N
1514226295.5,286046999.4,N
1514226315.4,286046996.6,N
1514226335.2,286046998.1,N
1514226355.0,286047000.2,N
1514226356.0,286047000.2,N
1514226375.8,286047000.6,N
1514226395.6,286046999.4,N
1514226415.5,286046999.5,N
1514226435.3,286046997.3,N
1514226455.1,286046997.7,N
1514226475.9,286046999.6,N
1514226495.7,286046997.7,N
1514226515.6,286046996.6,N
1514226535.4,286046999.1,N
1514226555.2,286046998.7,N
1514226575.1,286046996.7,N
1514226576.0,286046996.7,N
1514226595.8,286046998.4,N
1514226615.7,286047000.7,N
1514226635.5,286047000.7,N
1514226655.3,286047002.3,N
1514226675.2,286047000.2,N
1514226695.9,286047002.7,N
1514226715.7,286047001.8,N
1514226735.6,286047001.6,N
1514226755.4,286047001.7,N
1514226775.3,286047005.3,N
1514226795.1,286047004.9,N
1514226796.0,286047004.9,N
1514226815.8,286047005.0,N
1514226835.7,286047001.4,N
1514226855.5,286047004.1,N
1514226875.3,286047004.2,N
1514226895.2,286047004.0,N
1514226915.0,286047001.6,N
1514226915.9,286047001.6,N
1514226935.8,286047002.5,N
1514226955.6,286047003.9,N
1514226975.4,286047003.5,N
1514226995.3,286047005.8,N
1514227015.1,286047003.4,N
1514227035.9,286047001.3,N
1514227055.7,286047004.4,N
1514227075.5,286047003.7,N
1514227095.4,286047003.9,N
1514227115.2,286047001.4,N
1514227135.0,286047004.4,N
1514227135.9,286047004.4,N
1514227155.8,286047002.2,N
1514227175.6,286046999.7,N
1514227195.5,286047001.1,N
1514227215.3,286047002.6,N
1514227235.1,286047002.6,N
1514227255.9,286047001.6,N
1514227275.7,286047003.9,N
1514227295.6,286047003.5,N
1514227315.4,286047004.8,Y
1514227335.2,286047001.6,P
1514227355.1,286047002.7,P
1514227356.0,286047002.7,P
1514227375.8,286046996.5,Y
1514227395.7,286046993.4,P
1514227415.5,286046996.2,N
1514227435.3,286046996.1,N
1514227455.2,286046996.8,N
1514227475.0,286046998.9,N
1514227475.9,286046998.9,N
1514227495.7,286046995.3,N
1514227515.6,286046995.2,N
1514227535.4,286046995.4,N
1514227555.3,286046994.0,N
1514227575.1,286046993.9,N
1514227576.0,286046993.9,N
1514227595.8,286046995.8,N
1514227615.7,286046995.9,N
1514227635.5,286046995.0,N
1514227655.4,286046994.9,N
1514227675.2,286046997.3,N
1514227695.0,286046997.5,N
1514227695.9,286046997.5,N
1514227715.8,286046995.0,N
1514227735.6,286046997.6,N
1514227755.4,286046996.2,N
1514227775.3,286046996.0,N
1514227795.1,286046995.6,N
1514227815.9,286046994.1,Y
1514227835.7,286046999.5,P
1514227855.5,286046999.3,N
1514227875.4,286046997.4,N
1514227895.2,286046996.7,N
1514227915.0,286046996.5,N
1514227916.0,286046996.5,N
1514227935.8,286046996.7,N
1514227955.6,286046997.6,N
1514227975.5,286046997.8,N
1514227995.3,286046999.5,N
1514228015.1,286046999.5,N
1514228035.9,286046999.0,N
1514228055.7,286046997.1,N
1514228075.6,286046997.6,N
1514228095.4,286046997.5,N
1514228115.2,286047000.8,N
1514228135.1,286046999.0,N
1514228136.0,286046999.0,N
1514228155.8,286046997.6,N
1514228175.6,286046995.1,Y
1514228195.5,286046995.4,P
1514228215.3,286046997.2,N
1514228235.2,286046999.1,N
1514228255.9,286046996.9,N
1514228275.7,286046996.6,N
1514228295.6,286046998.9,N
1514228315.4,286047000.1,N
1514228335.3,286047001.8,N
1514228355.1,286047001.5,N
1514228356.0,286047001.5,N
1514228375.8,286047001.4,N
1514228395.7,286047001.3,N
